Date String (YYYY-MM-DD hh:mm:ss) UTC,Instrument flags,Ambient pressure (hPa),Sample flow (lpm),Bypass flow (lpm),Sample temperature (°C),Ambient temperature (°C),ASC tube jacket temperature (°C),LED temperature (°C),Box temperature (°C),Sample RH (%),Span deviation,Mass concentration (μg/m³),Mass concentration (μg/m³),Mass concentration (μg/m³)
DateTimeUTC,F1_M11,P_M11,Q1_M11,Q2_M11,T1_M11,T2_M11,T3_M11,T4_M11,T5_M11,U1_M11,ZSPAN_M11,X0_M11,X2_M11,X1_M11
2022-04-11 00:00:00,,0816.6,5.00,0.00,23.3,22.5,00.0,32.3,25.1,04.8,0000.0,0010.88,0004.43,0002.74
2022-04-11 00:01:00,,0816.6,5.00,0.00,23.3,22.5,00.0,32.3,25.0,04.8,0000.0,0011.50,0004.42,0002.76
2022-04-11 00:02:00,,0816.7,5.00,0.00,23.3,22.5,00.0,32.3,25.0,04.9,0000.0,0011.78,0004.41,0002.76
2022-04-11 00:03:00,,0816.6,5.01,0.00,23.3,22.5,00.0,32.3,25.1,04.9,0000.0,0011.82,0004.39,0002.74
2022-04-11 00:04:00,,0816.7,5.00,0.00,23.3,22.6,00.0,32.3,25.1,05.0,0000.0,0012.02,0004.37,0002.74
2022-04-11 00:05:00,,0816.6,5.00,0.00,23.3,22.6,00.0,32.3,25.1,04.9,0000.0,0012.33,0004.36,0002.73
2022-04-11 00:06:00,,0816.7,5.00,0.00,23.3,22.6,00.0,32.3,25.1,04.7,0000.0,0012.19,0004.31,0002.71
2022-04-11 00:07:00,,0816.7,5.00,0.00,23.3,22.6,00.0,32.3,25.1,04.8,0000.0,0011.80,0004.27,0002.68
2022-04-11 00:08:00,,0816.6,5.00,0.00,23.3,22.6,00.0,32.3,25.1,04.9,0000.0,0012.23,0004.24,0002.69
2022-04-11 00:09:00,,0816.8,5.00,0.00,23.3,22.6,00.0,32.3,25.1,04.8,0000.0,0012.73,0004.22,0002.68
2022-04-11 00:10:00,,0816.6,4.99,0.00,23.4,22.6,00.0,32.3,25.1,04.9,0000.0,0012.49,0004.23,0002.71
2022-04-11 00:11:00,,0816.6,5.00,0.00,23.4,22.6,00.0,32.3,25.1,05.0,0000.0,0012.26,0004.28,0002.71
2022-04-11 00:12:00,,0816.5,5.00,0.00,23.4,22.6,00.0,32.3,25.1,04.8,0000.0,0011.64,0004.29,0002.69
2022-04-11 00:13:00,,0816.6,5.00,0.00,23.4,22.6,00.0,32.3,25.1,04.8,0000.0,0011.30,0004.29,0002.68
2022-04-11 00:14:00,,0816.5,5.00,0.00,23.3,22.5,00.0,32.3,25.1,04.6,0000.0,0011.52,0004.35,0002.71
2022-04-11 00:15:00,,0816.5,5.00,0.00,23.3,22.5,00.0,32.3,25.1,04.6,0000.0,0011.34,0004.38,0002.72
2022-04-11 00:16:00,,0816.5,5.00,0.00,23.3,22.5,00.0,32.3,25.1,04.8,0000.0,0011.53,0004.44,0002.75
2022-04-11 00:17:00,,0816.6,5.00,0.00,23.3,22.5,00.0,32.3,25.1,04.6,0000.0,0011.64,0004.47,0002.76
2022-04-11 00:18:00,,0816.6,5.01,0.00,23.3,22.5,00.0,32.3,25.1,04.7,0000.0,0011.56,0004.46,0002.79
2022-04-11 00:19:00,,0816.7,5.01,0.00,23.3,22.5,00.0,32.3,25.0,04.8,0000.0,0011.07,0004.48,0002.79
2022-04-11 00:20:00,,0816.6,4.99,0.00,23.3,22.5,00.0,32.3,25.0,04.8,0000.0,0010.56,0004.47,0002.79
2022-04-11 00:21:00,,0816.6,5.00,0.00,23.3,22.5,00.0,32.3,25.0,04.8,0000.0,0010.33,0004.40,0002.77
2022-04-11 00:22:00,,0816.5,5.00,0.00,23.3,22.5,00.0,32.3,25.1,04.7,0000.0,0010.69,0004.40,0002.80
2022-04-11 00:23:00,,0816.5,5.01,0.00,23.3,22.4,00.0,32.3,25.1,04.7,0000.0,0010.88,0004.36,0002.81
2022-04-11 00:24:00,,0816.6,4.99,0.00,23.3,22.4,00.0,32.3,25.1,04.7,0000.0,0010.89,0004.37,0002.83
2022-04-11 00:25:00,,0816.6,5.00,0.00,23.3,22.4,00.0,32.3,25.1,04.6,0000.0,0010.61,0004.32,0002.82
2022-04-11 00:26:00,,0816.6,5.00,0.00,23.3,22.4,00.0,32.3,25.1,04.8,0000.0,0010.54,0004.31,0002.81
2022-04-11 00:27:00,,0816.6,5.00,0.00,23.3,22.4,00.0,32.3,25.1,04.9,0000.0,0010.26,0004.32,0002.82
2022-04-11 00:28:00,,0816.6,5.00,0.00,23.3,22.4,00.0,32.3,25.0,04.9,0000.0,0010.30,0004.31,0002.82
2022-04-11 00:29:00,,0816.6,5.00,0.00,23.2,22.4,00.0,32.3,25.0,04.7,0000.0,0010.45,0004.34,0002.79
2022-04-11 00:30:00,,0816.5,5.00,0.00,23.2,22.4,00.0,32.2,25.0,04.7,0000.0,0010.45,0004.34,0002.77
2022-04-11 00:31:00,,0816.6,5.00,0.00,23.2,22.3,00.0,32.2,25.0,04.7,0000.0,0010.36,0004.35,0002.77
2022-04-11 00:32:00,,0816.6,5.01,0.00,23.2,22.3,00.0,32.2,25.0,04.8,0000.0,0010.40,0004.41,0002.79
2022-04-11 00:33:00,,0816.5,5.01,0.00,23.2,22.2,00.0,32.2,25.0,04.7,0000.0,0009.93,0004.41,0002.77
2022-04-11 00:34:00,,0816.6,5.00,0.00,23.2,22.2,00.0,32.2,25.0,04.8,0000.0,0009.55,0004.42,0002.75
2022-04-11 00:35:00,,0816.7,4.99,0.00,23.2,22.2,00.0,32.2,25.0,04.7,0000.0,0009.46,0004.39,0002.72
2022-04-11 00:36:00,,0816.7,5.00,0.00,23.2,22.2,00.0,32.2,25.0,04.8,0000.0,0009.56,0004.37,0002.71
2022-04-11 00:37:00,,0816.8,5.01,0.00,23.2,22.2,00.0,32.2,24.9,04.9,0000.0,0009.75,0004.33,0002.70
2022-04-11 00:38:00,,0816.7,5.00,0.00,23.1,22.2,00.0,32.2,24.8,04.8,0000.0,0009.82,0004.30,0002.68
2022-04-11 00:39:00,,0816.7,4.99,0.00,23.1,22.2,00.0,32.2,24.8,04.8,0000.0,0010.87,0004.30,0002.68
2022-04-11 00:40:00,,0816.7,5.00,0.00,23.1,22.2,00.0,32.2,24.9,04.9,0000.0,0011.27,0004.34,0002.69
2022-04-11 00:41:00,,0816.7,5.00,0.00,23.1,22.2,00.0,32.1,24.8,04.8,0000.0,0011.61,0004.40,0002.71
2022-04-11 00:42:00,,0816.6,5.00,0.00,23.1,22.2,00.0,32.1,24.8,04.7,0000.0,0011.98,0004.40,0002.72
2022-04-11 00:43:00,,0816.7,5.00,0.00,23.1,22.2,00.0,32.1,24.8,04.8,0000.0,0012.50,0004.36,0002.71
2022-04-11 00:44:00,,0816.7,5.00,0.00,23.1,22.2,00.0,32.1,24.8,05.0,0000.0,0012.94,0004.32,0002.70
2022-04-11 00:45:00,,0816.6,5.01,0.00,23.1,22.2,00.0,32.1,24.7,04.9,0000.0,0013.85,0004.33,0002.71
2022-04-11 00:46:00,,0816.6,5.00,0.00,23.1,22.1,00.0,32.1,24.8,04.8,0000.0,0014.04,0004.37,0002.74
2022-04-11 00:47:00,,0816.6,5.00,0.00,23.1,22.1,00.0,32.1,24.8,04.8,0000.0,0013.89,0004.39,0002.75
2022-04-11 00:48:00,,0816.7,4.98,0.00,23.1,22.1,00.0,32.1,24.9,04.9,0000.0,0013.56,0004.39,0002.76
2022-04-11 00:49:00,,0816.7,5.01,0.00,23.1,22.1,00.0,32.1,24.9,04.9,0000.0,0014.29,0004.36,0002.74
2022-04-11 00:50:00,,0816.7,5.00,0.00,23.0,22.1,00.0,32.1,24.8,04.9,0000.0,0013.81,0004.42,0002.73
2022-04-11 00:51:00,,0816.6,5.00,0.00,23.0,22.1,00.0,32.1,24.7,05.1,0000.0,0013.37,0004.38,0002.72
2022-04-11 00:52:00,,0816.7,4.99,0.00,23.0,22.1,00.0,32.1,24.7,04.9,0000.0,0013.50,0004.35,0002.71
2022-04-11 00:53:00,,0816.7,5.00,0.00,23.0,22.1,00.0,32.1,24.7,05.0,0000.0,0013.25,0004.35,0002.70
2022-04-11 00:54:00,,0816.7,5.01,0.00,23.0,22.1,00.0,32.1,24.7,05.0,0000.0,0012.63,0004.34,0002.70
2022-04-11 00:55:00,,0816.7,4.99,0.00,23.0,22.1,00.0,32.1,24.6,05.0,0000.0,0012.32,0004.36,0002.70
2022-04-11 00:56:00,,0816.7,5.01,0.00,23.0,22.1,00.0,32.1,24.6,04.9,0000.0,0011.67,0004.37,0002.70
2022-04-11 00:57:00,,0816.7,4.99,0.00,23.0,22.1,00.0,32.1,24.7,04.8,0000.0,0011.83,0004.38,0002.69
2022-04-11 00:58:00,,0816.7,5.00,0.00,23.0,22.1,00.0,32.0,24.7,05.1,0000.0,0011.92,0004.36,0002.68
2022-04-11 00:59:00,,0816.5,5.00,0.00,23.0,22.2,00.0,32.0,24.7,05.2,0000.0,0012.28,0004.43,0002.68
